Terug naar catalogus

KUIPER-00458

ActiefCommunicatieLEO
NORAD 68950·PAYLOAD·🇺🇸 United States

Gelanceerd Apr 30, 2026 vanaf Guiana Space Centre

Loading…

Volgende Passages (komende 24 uur)

TLE

VersSource: CelesTrak SupGP

Epoch: Sep 14, 2026, 20:03 UTC

1 68950C 26098AH  26257.83547454  .00007839  00000+0  10262-2 0  2571
2 68950  51.9021  11.7595 0000525  98.2600 216.6015 14.79921078    13

Volg KUIPER-00458 in realtime met AllMySat

Download on the App Store